Regional Weather Roundup
Issued by NWS Mt. Holly, NJ

Home | Current Version | Previous Version | Text Only | Print | Product List | Glossary On
Versions: 1 2 3 4 5 6 7 8 9 10 11 12 13 14 15 16 17 18 19 20 21 22 23 24 25 26 27 28 29 30 31 32 33 34 35 36 37 38 39 40 41 42 43 44 45 46 47 48 49 50
000
ASUS41 KPHI 280212
RWRPHI

REGIONAL WEATHER ROUNDUP
NATIONAL WEATHER SERVICE MOUNT HOLLY NJ
1000 PM EDT FRI MAY 27 2016

NOTE:  "FAIR" INDICATES FEW OR NO CLOUDS BELOW 12,000 FEET WITH NO
SIGNIFICANT WEATHER AND/OR OBSTRUCTIONS TO VISIBILITY.

 * = STATION DOES NOT REPORT PRECIPITATION (E.G. RAIN, SNOW, ETC.)
        OR FOG.

NJZ015>026-280300-
SOUTHERN NEW JERSEY

CITY           SKY/WX    TMP DP  RH WIND       PRES   REMARKS
POMONA         CLEAR     73  54  51 S10       30.11R
WILDWOOD*      CLEAR    N/A N/A N/A S12       30.12S
MILLVILLE      PTCLDY    73  58  59 S6        30.11R
WRIGHTSTOWN    CLEAR     73  64  71 S7        30.06R
MOUNT HOLLY    CLEAR     76  64  66 S7        30.08R
TRENTON        CLEAR     78  66  66 S8        30.06R

$$
NJZ001>014-280300-
NORTHERN NEW JERSEY

CITY           SKY/WX    TMP DP  RH WIND       PRES   REMARKS
SUSSEX         MOCLDY    74  68  81 CALM      30.05R
ANDOVER*         N/A     74  68  81 CALM      30.06R
MORRISTOWN     MOCLDY    81  66  61 SW6       30.04R
NEWARK         MOCLDY    80  66  62 S13G18    30.04R
TETERBORO      PTCLDY    79  63  57 S5        30.03R
CALDWELL       PTCLDY    79  67  66 CALM      30.03R
SOMERVILLE     PTCLDY    73  67  81 CALM      30.03R
ALLAIRE*       CLEAR     73  59  61 S9        30.10R
TOMS RIVER*    PTCLDY    72  54  53 S9G16     30.10R

$$
PAZ043-044-047-054-055-060>062-066>071-280300-
EASTERN PENNSYLVANIA

CITY           SKY/WX    TMP DP  RH WIND       PRES   REMARKS
PHILADELPHIA   MOCLDY    78  65  63 S8        30.09R
NORTH PHILA    PTCLDY    81  66  60 SW9       30.08R
BLUE BELL*     CLEAR     77  68  73 S7        30.07R
DOYLESTOWN     CLEAR     77  64  64 S5        30.07R
QUAKERTOWN*    CLEAR     79  66  65 SW3       30.08R
PERKASIE*      FAIR      77  66  69 SW5       30.09R
POTTSTOWN      CLEAR     79  67  66 S8        30.08R
LANCASTER      PTCLDY    77  68  73 SW12      30.07R
COATESVILLE    PTCLDY    75  68  78 CALM      30.11R
READING        MOCLDY    80  67  64 S8        30.05R
ALLENTOWN      CLEAR     81  67  62 SW10      30.05R
MOUNT POCONO   PTCLDY    70  62  76 W6        30.12R
HAZLETON       PTCLDY    77  63  61 CALM      30.13R
LEHIGHTON      FAIR      70  66  88 CALM      30.06R
WILKES BARRE   CLOUDY    75  65  70 CALM      30.06R

$$
DEZALL-MDZ008-012-015-019-020-280300-
DELAWARE AND EASTERN MARYLAND

CITY           SKY/WX    TMP DP  RH WIND       PRES   REMARKS
WILMINGTON     CLOUDY    78  67  68 SW8       30.09R
DOVER          CLEAR     75  64  68 S10       30.09R
GEORGETOWN     CLEAR     72  56  57 S12       30.12R
EASTON         CLEAR     76  64  65 S10       30.14R
PATUXENT       PTCLDY    74  60  61 S9        30.10R
OCEAN CITY     CLEAR     71  60  68 SW17G24   30.14R
WALLOPS ISLAND FAIR      69  61  75 S16G24    30.15R
CAMBRIDGE      CLEAR     72  61  68 S9        30.11R
SALISBURY      CLEAR     71  57  61 S10       30.13R

$$
PAZ001-021-NYZ056-072-MDZ011-DCZ001-280300-
OTHER NEARBY LOCATIONS

CITY           SKY/WX    TMP DP  RH WIND       PRES   REMARKS
HARRISBURG     MOCLDY    73  68  84 W5        30.05R
STATE COLLEGE  PTCLDY    72  64  74 SW5       30.08R
WILLIAMSPORT   CLOUDY    73  66  78 CALM      30.03R
BINGHAMTON     CLOUDY    69  64  84 S5        30.07R
NEW YORK CITY  CLEAR     78  63  59 VRB6      30.07R
BALTIMORE      CLOUDY    74  65  73 SE5       30.07R
WASHINGTON DC  FAIR      77  69  76 S7        30.08R

$$



USA.gov is the U.S. government's official web portal to all federal, state and local government web resources and services.